CZ-6A DEB, 56271

Orbit data source: Space-Track

CZ-6A DEB, 56271 is space debris in SSO originally from a launch on Fri, 11 Nov 2022 UTC launched from the Taiyaun Space Center, China (TSC). Debris objects in space refer to the collection of defunct objects orbiting the Earth. Examples of debris include non-operational satellites, rocket bodies, and fragments generated from explosions, collisions, or faulty payload assembly.

Loading next visibility...
Identifier
56271, 2022-151ACP
Orbit
SSO
Country
Flag of CNCN / PRC
Related business
Manufacturer
SAST
Mission
Spacecraft
Bus & Motor
Unknown
Mass
Unknown
Launch date (UTC)
2022-11-11 (4 years ago)
Launch vehicle
Unknown
Launch site
Taiyaun Space Center, China (TSC)
Object type
Payload
Rocket body
Debris
Shape & HBR
Unknown shape, 0.1 m
Radar Cross Section
Medium (>0.1 m² and <1 m²)

Expand to show TLE details & history
Last TLE update: 2 days ago

TLE from 2 days ago
0 CZ-6A DEB
1 56271U 22151ACP 26171.08873101  .00012346  00000-0  16952-2 0  9998
2 56271  98.5328 221.5392 0046646 262.7077  96.8829 14.77771411172517
Epoch: 2026-06-20T02:07Z
TLE epoch observation values (Epoch: 2026-06-20T02:07:46.359Z)
Latitude
0.00004°
Longitude
-78.71234°
Altitude
643.439 km
Speed
7.534 km/s
True Right ascension
14h 46m 09s
True Declination
0° 00' 00"
Sunlit
Object was in full shadow at epoch
Visualization orbit readout
Latitude
Unknown
Longitude
Unknown
Altitude
Unknown
Speed
Unknown
Apparent Right ascension
Unknown
Apparent Declination
Unknown
Sunlit
N/A
Visualization observer readout
Local Sidereal Time
21:35:31
Azimuth
Unknown
Elevation
Unknown
Doppler factor
Unknown
Orbital elements
Apogee altitude
666.147 km
Perigee altitude
600.734 km
Semi-major axis
7,011.578 km
Eccentricity
0.00466
Inclination
98.5328°
RAAN
221.5392°
Arg. of periapsis
262.7077°
True anomaly
97.41319°
Mean anomaly
96.8829°
Eccentric anomaly
97.14808°
Mean motion
3.69675 °/min
Orbital period
97.38 mins
BSTAR
0.0016952
Loading maneuver chart data...
Computing Atmospheric mass density...
Loading historical data...
Loading historical data...
Loading historical data...
Loading historical data...
Loading historical data...
Loading historical data...
Loading historical data...

Documentation

Showing up to 5 results
|